Weather in Kalugino

Russia / Tambov Oblast     52°24′25″N   42°17′24″E
temp.,
°C
wind,
m/s
gust,
m/s
humid.,
%
clouds,
%
prec.,
mm/h
press.,
hPa
HPBL,
m
28 february, sun
sun2800:00−10nnw4994100 0.1 1012352
03:00−12nw359686 0.1 1014114
06:00−13nw349783 0.0 101468
09:00−11nw369688 0.1 1015247
12:00−8nnw359199 0.0 1015439
15:00−6nw249099 0.1 1015467
18:00−7nnw2296100 0.1 101630
21:00−9n249699 0.2 101987
1 march, mon
mon100:00−11nne239683 0.1 102021
03:00−13n229556 0.1 102220
06:00−14n23945 0.0 102320
09:00−12nnw22952 0.0 102670
12:00−8nw239036 0.0 1026260
15:00−5wsw359266 0.1 1026406
18:00−8w459554 0.0 102579
21:00−7wsw4109658 0.0 1024219
2 march, tue
tue200:00−6wsw6139699 0.0 1021393
03:00−3wsw71394100 0.2 1019531
06:00−2wsw81496100 0.5 1015536
09:000w91593100 0.6 1013797
12:00+1w81398100 0.9 1010619
15:00+1wnw61199100 1.1 1009564
18:000nw5998100 0.3 1008436
21:00−1wnw4898100 0.4 1008260
3 march, wed
wed300:00−3nw4996100 0.0 1008243
03:00−6nnw469695 0.0 1009107
06:00−7nw479442 0.0 1010129
09:00−5nw4109526 0.0 1012294
12:00−1nw589165 0.1 1012723
15:00−1nw6109182 0.3 1014820
18:00−4nw6129368 0.1 1015448
21:00−7wnw4109259 0.1 1018204
4 march, thu
thu400:00−8w479411 0.0 1017124
03:00−8wsw599627 0.0 1016184
06:00−7wsw5119691 0.0 1014263
09:00−4wsw7149491 0.1 1012511
12:00−1wsw9158795 0.0 1009821
15:00+1wsw9178179 0.0 1007959
18:00−1wsw7178227 0.0 1005779
21:000wsw8159364 0.1 1006723